Tampa, FL

2:31 AM EST on February 10, 2016 (GMT -0500)
MacDill Air Force Base

Weather History for KMCF - May, 2014

Change the Weather History Date:

Saturday, May 17, 2014

  Actual Average Record
Temperature  
Mean Temperature 71 °F -  
Max Temperature 83 °F 85 °F 93 °F (2000)
Min Temperature 59 °F 68 °F 59 °F (2014)
Cooling Degree Days 6    
Growing Degree Days 21 (Base 50)    
Moisture  
Dew Point 53 °F    
Average Humidity 52    
Maximum Humidity 84    
Minimum Humidity 31    
Precipitation  
Precipitation 0.00 in - - ()
Sea Level Pressure  
Sea Level Pressure 30.14 in    
Wind  
Wind Speed 9 mph (ENE)    
Max Wind Speed 16 mph    
Max Gust Speed 20 mph    
Visibility 10 miles    
Events      
Averages and records for this station are not official NWS values.
T = Trace of Precipitation, MM = Missing Value Source: NWS Daily Summary

Daily Weather History Graph

Daily Weather History Graph

Search for Another Location

Airport or City:

Trip Planner

Search our weather history database for the weather conditions in past years. The results will help you decide how hot, cold, wet, or windy it might be!

Date:

Astronomy

May. 17, 2014 Rise Set
Actual Time 6:39 AM EDT 8:13 PM EDT
Civil Twilight 6:14 AM EDT 8:39 PM EDT
Nautical Twilight 5:43 AM EDT 9:10 PM EDT
Astronomical Twilight 5:11 AM EDT 9:42 PM EDT
Moon 11:15 PM EDT (5/17) 9:20 AM EDT (5/17)
Length of Visible Light 14h 25m
Length of Day
13h 34m
Waning Gibbous, 89% of the Moon is Illuminated
May 17
Waning Gibbous
May 21
Last Quarter
May 28
New
Jun 5
First Quarter
Jun 13
Full

Hourly Weather History & Observations

Time (EDT) Temp. Dew Point Humidity Pressure Visibility Wind Dir Wind Speed Gust Speed Precip Events Conditions
12:58 AM 65.8 °F 58.6 °F 78% 30.15 in 10.0 mi NNE 5.8 mph - N/A   Clear
1:58 AM 65.8 °F 57.9 °F 76% 30.14 in 10.0 mi NNE 6.9 mph - N/A   Clear
2:58 AM 64.8 °F 56.5 °F 74% 30.14 in 10.0 mi NNE 5.8 mph - N/A   Clear
3:58 AM 64.6 °F 53.6 °F 68% 30.13 in 10.0 mi NNE 4.6 mph - N/A   Clear
4:58 AM 60.6 °F 54.9 °F 81% 30.15 in 10.0 mi NE 4.6 mph - N/A   Clear
5:58 AM 59.4 °F 54.7 °F 84% 30.15 in 10.0 mi NE 6.9 mph - N/A   Clear
6:58 AM 60.6 °F 53.4 °F 77% 30.15 in 10.0 mi NE 5.8 mph - N/A   Clear
7:58 AM 65.8 °F 53.1 °F 63% 30.16 in 10.0 mi NE 10.4 mph - N/A   Clear
8:58 AM 70.9 °F 54.0 °F 55% 30.17 in 10.0 mi NE 10.4 mph - N/A   Clear
9:58 AM 73.8 °F 53.6 °F 49% 30.18 in 10.0 mi ENE 12.7 mph - N/A   Clear
10:58 AM 77.2 °F 50.0 °F 38% 30.19 in 10.0 mi NE 10.4 mph 18.4 mph N/A   Clear
11:58 AM 79.0 °F 49.1 °F 35% 30.18 in 10.0 mi NE 10.4 mph - N/A   Clear
12:58 PM 80.1 °F 50.0 °F 35% 30.16 in 10.0 mi ENE 12.7 mph 19.6 mph N/A   Partly Cloudy
1:58 PM 81.1 °F 50.7 °F 35% 30.14 in 10.0 mi ENE 15.0 mph 19.6 mph N/A   Scattered Clouds
2:13 PM 82.4 °F 50.0 °F 32% 30.13 in 10.0 mi East 13.8 mph - N/A   Partly Cloudy
2:58 PM 82.8 °F 50.2 °F 32% 30.13 in 10.0 mi ENE 10.4 mph - N/A   Clear
3:58 PM 83.1 °F 50.0 °F 32% 30.11 in 10.0 mi East 10.4 mph - N/A   Clear
4:58 PM 82.9 °F 49.6 °F 31% 30.10 in 10.0 mi East 11.5 mph - N/A   Clear
5:58 PM 82.2 °F 50.5 °F 33% 30.09 in 10.0 mi East 15.0 mph - N/A   Clear
6:58 PM 81.0 °F 52.9 °F 38% 30.09 in 10.0 mi East 12.7 mph - N/A   Clear
7:58 PM 78.4 °F 55.0 °F 44% 30.11 in 10.0 mi ESE 16.1 mph - N/A   Clear
8:58 PM 75.2 °F 54.5 °F 48% 30.14 in 10.0 mi ESE 10.4 mph - N/A   Clear
9:58 PM 73.2 °F 53.8 °F 50% 30.16 in 10.0 mi ESE 11.5 mph - N/A   Clear
10:58 PM 70.9 °F 56.3 °F 60% 30.18 in 10.0 mi East 11.5 mph - N/A   Clear
11:58 PM 69.4 °F 55.2 °F 60% 30.18 in 10.0 mi ESE 10.4 mph - N/A   Clear